JAS-2 (FO-29) (24278 NORAD) Tracking and Keplerian Element Data

This shows tracking and keplerian element data for the satellite.

Feedback or suggestion? Click here.




ElementValue
Catalog24278
NameJAS-2 (FO-29)
Epoch Orbit29672
Epoch Day324.59944561
Epoch Year2022
RAAN326.7882
Inclination98.5141
Eccentricity0.0349375
Argument of Perigee238.0284
Mean Anonmoly118.6453
Mean Motion13.5312472
Decay Rate1.6E-07
L11 24278U 96046B 22324.59944561 .00000016 00000+0 54264-4 0 9995
L22 24278 98.5141 326.7882 0349375 238.0284 118.6453 13.53124720296729



Live tracking and technical data element details for JAS-2 (FO-29) (NORAD 24278). JAS-2 (FO-29) can be tracked NOW for your location showing map with azimuth and elevation plus other details from your city location.







IsCatalogInMostPopularTable: catalog: 24278, numindb: 466
Update: records affected: 1



GetName: 24278 JAS-2 (FO-29)

Hit Count: updated at: Mon, 28 Nov 2022 06:01:35 GMT